User: anonymous   Login
Location: Gesvres
(49.0440°N, 2.8518°E)
Time: 18:56:13
(UTC+00:00)
Language:

Cosmos 1726 Rocket - Orbit

View from above orbital plane
View from above orbital plane
View from above satellite
View from above satellite

Ground track
Ground track

The orbit data is extracted from the following two-line orbital elements,

1 16496U 86006B   24151.47738647  .00000744  00000-0  83647-4 0  9992
2 16496  82.5231 149.0892 0017985 329.3783 145.8626 14.85288259 52930
Epoch (UTC): 30 May 2024 11:27:26
Eccentricity: 0.0017985
inclination: 82.5231°
perigee height: 600 km
apogee height: 625 km
right ascension of ascending node: 149.0892°
argument of perigee: 329.3783°
revolutions per day: 14.85288259
mean anomaly at epoch: 145.8626°
orbit number at epoch: 5293

The dashed part of the orbit path shows where the satellite is in the earth's shadow,  

DLR